TimeCST,TemperatureF,Dew PointF,Humidity,Sea Level PressureIn,VisibilityMPH,Wind Direction,Wind SpeedMPH,Gust SpeedMPH,PrecipitationIn,Events,Conditions,WindDirDegrees,DateUTC
12:00 AM,71.6,68.0,88,29.68,6.2,North,8.9,-,N/A,,Scattered Clouds,360,2013-06-20 16:00:00
12:30 AM,73.4,68.0,83,29.68,6.2,NNE,6.7,-,N/A,,Scattered Clouds,30,2013-06-20 16:30:00
1:00 AM,73.4,66.2,78,29.68,6.2,NNE,8.9,-,N/A,,Scattered Clouds,20,2013-06-20 17:00:00
1:30 AM,73.4,66.2,78,29.68,6.2,NE,4.5,-,N/A,,Mostly Cloudy,40,2013-06-20 17:30:00
2:00 AM,73.4,66.2,78,29.68,6.2,East,6.7,-,N/A,,Mostly Cloudy,80,2013-06-20 18:00:00
2:30 AM,73.4,66.2,78,29.68,6.2,ENE,4.5,-,N/A,,Mostly Cloudy,60,2013-06-20 18:30:00
3:00 AM,69.8,66.2,88,29.68,6.2,North,4.5,-,N/A,,Mostly Cloudy,10,2013-06-20 19:00:00
3:30 AM,69.8,66.2,88,29.68,6.2,North,6.7,-,N/A,,Mostly Cloudy,360,2013-06-20 19:30:00
4:00 AM,69.8,66.2,88,29.68,6.2,North,4.5,-,N/A,,Partly Cloudy,10,2013-06-20 20:00:00
4:30 AM,69.8,66.2,88,29.71,6.2,North,4.5,-,N/A,,Partly Cloudy,350,2013-06-20 20:30:00
5:00 AM,69.8,66.2,88,29.71,6.2,North,4.5,-,N/A,,Mostly Cloudy,350,2013-06-20 21:00:00
5:30 AM,71.6,68.0,88,29.74,6.2,North,4.5,-,N/A,,Mostly Cloudy,350,2013-06-20 21:30:00
6:00 AM,73.4,68.0,83,29.74,6.2,North,4.5,-,N/A,,Mostly Cloudy,350,2013-06-20 22:00:00
6:30 AM,73.4,68.0,83,29.74,6.2,North,6.7,-,N/A,,Mostly Cloudy,360,2013-06-20 22:30:00
7:00 AM,75.2,66.2,73,29.74,6.2,NE,6.7,-,N/A,,Mostly Cloudy,50,2013-06-20 23:00:00
7:30 AM,77.0,66.2,69,29.74,6.2,NNE,6.7,-,N/A,,Scattered Clouds,30,2013-06-20 23:30:00
8:00 AM,78.8,66.2,65,29.74,6.2,NE,6.7,-,N/A,,Scattered Clouds,40,2013-06-21 00:00:00
8:30 AM,80.6,68.0,65,29.74,6.2,NNE,6.7,-,N/A,,Scattered Clouds,30,2013-06-21 00:30:00
9:00 AM,80.6,68.0,65,29.77,-9999.0,NNE,6.7,-,N/A,,Clear,20,2013-06-21 01:00:00
9:30 AM,82.4,68.0,62,29.77,-9999.0,Variable,6.7,-,N/A,,Clear,0,2013-06-21 01:30:00
10:00 AM,84.2,68.0,58,29.77,-9999.0,ENE,6.7,-,N/A,,Clear,70,2013-06-21 02:00:00
10:30 AM,84.2,68.0,58,29.77,-9999.0,ENE,6.7,-,N/A,,Clear,60,2013-06-21 02:30:00
11:00 AM,84.2,68.0,58,29.77,-9999.0,North,6.7,-,N/A,,Clear,10,2013-06-21 03:00:00
11:30 AM,84.2,66.2,55,29.77,-9999.0,NE,8.9,-,N/A,,Clear,50,2013-06-21 03:30:00
12:00 PM,86.0,68.0,55,29.77,-9999.0,NNE,6.7,-,N/A,,Clear,20,2013-06-21 04:00:00
12:30 PM,86.0,69.8,58,29.77,-9999.0,NE,8.9,-,N/A,,Clear,40,2013-06-21 04:30:00
1:00 PM,86.0,69.8,58,29.74,-9999.0,North,8.9,-,N/A,,Clear,10,2013-06-21 05:00:00
1:30 PM,86.0,68.0,55,29.74,-9999.0,ENE,6.7,-,N/A,,Clear,60,2013-06-21 05:30:00
2:00 PM,86.0,68.0,55,29.74,-9999.0,NE,11.2,-,N/A,,Clear,40,2013-06-21 06:00:00
2:30 PM,86.0,68.0,55,29.74,-9999.0,NE,8.9,-,N/A,,Clear,40,2013-06-21 06:30:00
3:00 PM,86.0,68.0,55,29.74,-9999.0,Variable,6.7,17.9,N/A,,Clear,0,2013-06-21 07:00:00
3:30 PM,86.0,68.0,55,29.74,-9999.0,ENE,8.9,-,N/A,,Clear,60,2013-06-21 07:30:00
4:00 PM,86.0,66.2,51,29.71,-9999.0,ENE,8.9,-,N/A,,Clear,60,2013-06-21 08:00:00
4:30 PM,86.0,66.2,51,29.71,-9999.0,NE,8.9,-,N/A,,Clear,50,2013-06-21 08:30:00
5:00 PM,86.0,66.2,51,29.71,-9999.0,NE,13.4,-,N/A,,Clear,40,2013-06-21 09:00:00
5:30 PM,84.2,66.2,55,29.74,-9999.0,ENE,11.2,-,N/A,,Clear,70,2013-06-21 09:30:00
6:00 PM,82.4,68.0,62,29.74,-9999.0,East,13.4,-,N/A,,Clear,90,2013-06-21 10:00:00
6:30 PM,82.4,68.0,62,29.74,-9999.0,East,11.2,24.6,N/A,,Clear,100,2013-06-21 10:30:00
7:00 PM,80.6,68.0,65,29.77,6.2,ESE,11.2,-,N/A,,Scattered Clouds,110,2013-06-21 11:00:00
7:30 PM,78.8,68.0,69,29.77,6.2,SE,11.2,22.4,N/A,,Partly Cloudy,130,2013-06-21 11:30:00
8:00 PM,78.8,66.2,65,29.77,6.2,ENE,8.9,-,N/A,,Partly Cloudy,70,2013-06-21 12:00:00
8:30 PM,78.8,64.4,61,29.77,6.2,East,8.9,-,N/A,,Partly Cloudy,80,2013-06-21 12:30:00
9:00 PM,78.8,62.6,57,29.80,-9999.0,East,8.9,-,N/A,,Clear,100,2013-06-21 13:00:00
9:30 PM,78.8,64.4,61,29.80,-9999.0,ENE,6.7,-,N/A,,Clear,70,2013-06-21 13:30:00
10:00 PM,77.0,64.4,65,29.80,-9999.0,NE,6.7,-,N/A,,Clear,50,2013-06-21 14:00:00
10:30 PM,77.0,64.4,65,29.80,-9999.0,East,6.7,-,N/A,,Clear,80,2013-06-21 14:30:00
11:00 PM,77.0,64.4,65,29.80,-9999.0,East,6.7,-,N/A,,Clear,100,2013-06-21 15:00:00
11:30 PM,77.0,66.2,69,29.77,-9999.0,East,6.7,-,N/A,,Clear,100,2013-06-21 15:30:00